PRIVATE WETTERSTATION BILLIGHEIM-ALLFELD                       ZURCK
Wetterdaten: Freitag, 14.11.2014
Datum Zeit Temp. A. Temp. A. min Temp. A. max Feuchte A. Luftdruck Regen Wind Richtung Richtung Sonnenschein ET Solar Taupunkt Windchill Windben Empfang
14.11.2014 00:00 8,1 C 8,1 C 8,1 C 91 % 1012,9 hPa 0,0 l/m 1,6 km/h (1 Bft) O-SO 112 0 min 0,000 mm 0 W/m 6,7 C 8,1 C 9,7 km/h (2 Bft) 100 %
14.11.2014 00:10 8,2 C 8,1 C 8,2 C 91 % 1012,8 hPa 0,0 l/m 0,0 km/h (0 Bft) O-SO 112 0 min 0,000 mm 0 W/m 6,8 C 8,2 C 4,8 km/h (1 Bft) 100 %
14.11.2014 00:20 8,2 C 8,2 C 8,2 C 91 % 1012,7 hPa 0,0 l/m 1,6 km/h (1 Bft) SO 135 0 min 0,000 mm 0 W/m 6,8 C 8,2 C 8,0 km/h (2 Bft) 100 %
14.11.2014 00:30 8,2 C 8,2 C 8,2 C 91 % 1012,6 hPa 0,0 l/m 0,0 km/h (0 Bft) O 90 0 min 0,000 mm 0 W/m 6,8 C 8,2 C 6,4 km/h (2 Bft) 100 %
14.11.2014 00:40 8,3 C 8,2 C 8,3 C 92 % 1012,6 hPa 0,0 l/m 0,0 km/h (0 Bft) O 90 0 min 0,000 mm 0 W/m 7,1 C 8,3 C 4,8 km/h (1 Bft) 100 %
14.11.2014 00:50 8,3 C 8,3 C 8,3 C 92 % 1012,4 hPa 0,0 l/m 0,0 km/h (0 Bft) O 90 0 min 0,000 mm 0 W/m 7,1 C 8,3 C 4,8 km/h (1 Bft) 100 %
14.11.2014 01:00 8,3 C 8,3 C 8,3 C 92 % 1012,2 hPa 0,0 l/m 1,6 km/h (1 Bft) O 90 0 min 0,000 mm 0 W/m 7,1 C 8,3 C 8,0 km/h (2 Bft) 100 %
14.11.2014 01:10 8,3 C 8,3 C 8,3 C 92 % 1012,2 hPa 0,0 l/m 0,0 km/h (0 Bft) O 90 0 min 0,000 mm 0 W/m 7,1 C 8,3 C 6,4 km/h (2 Bft) 100 %
14.11.2014 01:20 8,3 C 8,3 C 8,3 C 92 % 1012,0 hPa 0,0 l/m 0,0 km/h (0 Bft) NO 45 0 min 0,000 mm 0 W/m 7,1 C 8,3 C 6,4 km/h (2 Bft) 100 %
14.11.2014 01:30 8,3 C 8,3 C 8,3 C 92 % 1012,0 hPa 0,0 l/m 0,0 km/h (0 Bft) N-NO 22 0 min 0,000 mm 0 W/m 7,1 C 8,3 C 8,0 km/h (2 Bft) 100 %
14.11.2014 01:40 8,3 C 8,3 C 8,3 C 92 % 1012,1 hPa 0,0 l/m 0,0 km/h (0 Bft) O 90 0 min 0,000 mm 0 W/m 7,1 C 8,3 C 4,8 km/h (1 Bft) 100 %
14.11.2014 01:50 8,4 C 8,3 C 8,4 C 92 % 1012,1 hPa 0,0 l/m 0,0 km/h (0 Bft) O 90 0 min 0,000 mm 0 W/m 7,2 C 8,4 C 8,0 km/h (2 Bft) 100 %
14.11.2014 02:00 8,4 C 8,3 C 8,4 C 92 % 1011,9 hPa 0,0 l/m 0,0 km/h (0 Bft) SO 135 0 min 0,000 mm 0 W/m 7,2 C 8,4 C 6,4 km/h (2 Bft) 100 %
14.11.2014 02:10 8,4 C 8,4 C 8,4 C 92 % 1011,9 hPa 0,0 l/m 0,0 km/h (0 Bft) O 90 0 min 0,000 mm 0 W/m 7,2 C 8,4 C 8,0 km/h (2 Bft) 100 %
14.11.2014 02:20 8,4 C 8,4 C 8,4 C 92 % 1012,0 hPa 0,0 l/m 0,0 km/h (0 Bft) O-NO 67 0 min 0,000 mm 0 W/m 7,2 C 8,4 C 6,4 km/h (2 Bft) 100 %
14.11.2014 02:30 8,4 C 8,4 C 8,4 C 92 % 1012,0 hPa 0,0 l/m 0,0 km/h (0 Bft) O-SO 112 0 min 0,000 mm 0 W/m 7,2 C 8,4 C 8,0 km/h (2 Bft) 100 %
14.11.2014 02:40 8,5 C 8,4 C 8,5 C 92 % 1012,1 hPa 0,0 l/m 1,6 km/h (1 Bft) O 90 0 min 0,000 mm 0 W/m 7,3 C 8,5 C 6,4 km/h (2 Bft) 100 %
14.11.2014 02:50 8,6 C 8,5 C 8,6 C 92 % 1012,1 hPa 0,0 l/m 0,0 km/h (0 Bft) O 90 0 min 0,000 mm 0 W/m 7,4 C 8,6 C 4,8 km/h (1 Bft) 100 %
14.11.2014 03:00 8,6 C 8,6 C 8,6 C 92 % 1012,0 hPa 0,0 l/m 0,0 km/h (0 Bft) NO 45 0 min 0,000 mm 0 W/m 7,4 C 8,6 C 4,8 km/h (1 Bft) 100 %
14.11.2014 03:10 8,6 C 8,6 C 8,6 C 92 % 1011,9 hPa 0,0 l/m 0,0 km/h (0 Bft) O 90 0 min 0,000 mm 0 W/m 7,4 C 8,6 C 4,8 km/h (1 Bft) 100 %
14.11.2014 03:20 8,6 C 8,6 C 8,6 C 92 % 1011,8 hPa 0,0 l/m 0,0 km/h (0 Bft) O-NO 67 0 min 0,000 mm 0 W/m 7,4 C 8,6 C 4,8 km/h (1 Bft) 100 %
14.11.2014 03:30 8,6 C 8,6 C 8,6 C 92 % 1011,6 hPa 0,0 l/m 0,0 km/h (0 Bft) NO 45 0 min 0,000 mm 0 W/m 7,4 C 8,6 C 4,8 km/h (1 Bft) 100 %
14.11.2014 03:40 8,6 C 8,5 C 8,6 C 92 % 1011,3 hPa 0,0 l/m 1,6 km/h (1 Bft) O 90 0 min 0,000 mm 0 W/m 7,4 C 8,6 C 8,0 km/h (2 Bft) 100 %
14.11.2014 03:50 8,6 C 8,5 C 8,6 C 92 % 1011,2 hPa 0,0 l/m 0,0 km/h (0 Bft) NO 45 0 min 0,000 mm 0 W/m 7,4 C 8,6 C 1,6 km/h (1 Bft) 100 %
14.11.2014 04:00 8,5 C 8,5 C 8,6 C 92 % 1011,1 hPa 0,0 l/m 1,6 km/h (1 Bft) O-NO 67 0 min 0,000 mm 0 W/m 7,3 C 8,5 C 8,0 km/h (2 Bft) 100 %
14.11.2014 04:10 8,6 C 8,5 C 8,6 C 92 % 1011,2 hPa 0,0 l/m 1,6 km/h (1 Bft) O-SO 112 0 min 0,000 mm 0 W/m 7,4 C 8,6 C 8,0 km/h (2 Bft) 100 %
14.11.2014 04:20 8,7 C 8,6 C 8,7 C 92 % 1011,2 hPa 0,0 l/m 1,6 km/h (1 Bft) O 90 0 min 0,000 mm 0 W/m 7,5 C 8,7 C 8,0 km/h (2 Bft) 100 %
14.11.2014 04:30 8,7 C 8,7 C 8,7 C 92 % 1011,2 hPa 0,0 l/m 0,0 km/h (0 Bft) O-SO 112 0 min 0,000 mm 0 W/m 7,5 C 8,7 C 6,4 km/h (2 Bft) 100 %
14.11.2014 04:40 8,8 C 8,7 C 8,8 C 92 % 1011,3 hPa 0,0 l/m 0,0 km/h (0 Bft) O-SO 112 0 min 0,000 mm 0 W/m 7,6 C 8,8 C 6,4 km/h (2 Bft) 100 %
14.11.2014 04:50 8,8 C 8,8 C 8,8 C 92 % 1011,2 hPa 0,0 l/m 0,0 km/h (0 Bft) O 90 0 min 0,000 mm 0 W/m 7,6 C 8,8 C 6,4 km/h (2 Bft) 100 %
14.11.2014 05:00 8,8 C 8,8 C 8,8 C 92 % 1011,0 hPa 0,0 l/m 0,0 km/h (0 Bft) NO 45 0 min 0,000 mm 0 W/m 7,6 C 8,8 C 6,4 km/h (2 Bft) 100 %
14.11.2014 05:10 8,8 C 8,8 C 8,8 C 92 % 1010,9 hPa 0,0 l/m 0,0 km/h (0 Bft) O 90 0 min 0,000 mm 0 W/m 7,6 C 8,8 C 6,4 km/h (2 Bft) 100 %
14.11.2014 05:20 8,8 C 8,8 C 8,8 C 92 % 1010,9 hPa 0,0 l/m 0,0 km/h (0 Bft) O-SO 112 0 min 0,000 mm 0 W/m 7,6 C 8,8 C 8,0 km/h (2 Bft) 90 %
14.11.2014 05:30 8,8 C 8,8 C 8,8 C 92 % 1010,9 hPa 0,0 l/m 1,6 km/h (1 Bft) O 90 0 min 0,000 mm 0 W/m 7,6 C 8,8 C 8,0 km/h (2 Bft) 100 %
14.11.2014 05:40 8,8 C 8,8 C 8,8 C 92 % 1010,8 hPa 0,0 l/m 1,6 km/h (1 Bft) O 90 0 min 0,000 mm 0 W/m 7,6 C 8,8 C 6,4 km/h (2 Bft) 100 %
14.11.2014 05:50 8,8 C 8,8 C 8,8 C 92 % 1010,7 hPa 0,0 l/m 0,0 km/h (0 Bft) O 90 0 min 0,000 mm 0 W/m 7,6 C 8,8 C 4,8 km/h (1 Bft) 100 %
14.11.2014 06:00 8,8 C 8,8 C 8,8 C 92 % 1010,6 hPa 0,0 l/m 1,6 km/h (1 Bft) O 90 0 min 0,000 mm 0 W/m 7,6 C 8,8 C 6,4 km/h (2 Bft) 100 %
14.11.2014 06:10 8,8 C 8,7 C 8,8 C 92 % 1010,6 hPa 0,0 l/m 0,0 km/h (0 Bft) O 90 0 min 0,000 mm 0 W/m 7,6 C 8,8 C 6,4 km/h (2 Bft) 100 %
14.11.2014 06:20 8,7 C 8,7 C 8,8 C 92 % 1010,7 hPa 0,0 l/m 0,0 km/h (0 Bft) O-NO 67 0 min 0,000 mm 0 W/m 7,5 C 8,7 C 6,4 km/h (2 Bft) 100 %
14.11.2014 06:30 8,7 C 8,7 C 8,7 C 92 % 1010,5 hPa 0,0 l/m 1,6 km/h (1 Bft) O 90 0 min 0,000 mm 0 W/m 7,5 C 8,7 C 6,4 km/h (2 Bft) 99 %
14.11.2014 06:40 8,7 C 8,7 C 8,7 C 92 % 1010,3 hPa 0,0 l/m 1,6 km/h (1 Bft) O-NO 67 0 min 0,000 mm 0 W/m 7,5 C 8,7 C 8,0 km/h (2 Bft) 100 %
14.11.2014 06:50 8,7 C 8,7 C 8,7 C 92 % 1010,4 hPa 0,0 l/m 1,6 km/h (1 Bft) O 90 0 min 0,000 mm 0 W/m 7,5 C 8,7 C 8,0 km/h (2 Bft) 100 %
14.11.2014 07:00 8,8 C 8,7 C 8,8 C 92 % 1010,3 hPa 0,0 l/m 0,0 km/h (0 Bft) O-SO 112 0 min 0,000 mm 0 W/m 7,6 C 8,8 C 6,4 km/h (2 Bft) 100 %
14.11.2014 07:10 8,8 C 8,8 C 8,8 C 92 % 1010,2 hPa 0,0 l/m 0,0 km/h (0 Bft) O-SO 112 0 min 0,000 mm 0 W/m 7,6 C 8,8 C 1,6 km/h (1 Bft) 100 %
14.11.2014 07:20 8,8 C 8,8 C 8,8 C 92 % 1010,2 hPa 0,0 l/m 0,0 km/h (0 Bft) O-SO 112 0 min 0,000 mm 0 W/m 7,6 C 8,8 C 6,4 km/h (2 Bft) 100 %
14.11.2014 07:30 8,8 C 8,8 C 8,8 C 91 % 1010,3 hPa 0,0 l/m 1,6 km/h (1 Bft) SO 135 0 min 0,000 mm 0 W/m 7,4 C 8,8 C 11,3 km/h (2 Bft) 100 %
14.11.2014 07:40 8,8 C 8,8 C 8,8 C 91 % 1010,1 hPa 0,0 l/m 3,2 km/h (1 Bft) SO 135 0 min 0,000 mm 0 W/m 7,4 C 8,8 C 11,3 km/h (2 Bft) 100 %
14.11.2014 07:50 8,8 C 8,8 C 8,8 C 91 % 1010,2 hPa 0,0 l/m 1,6 km/h (1 Bft) SO 135 0 min 0,000 mm 0 W/m 7,4 C 8,8 C 8,0 km/h (2 Bft) 100 %
14.11.2014 08:00 8,8 C 8,8 C 8,8 C 91 % 1010,2 hPa 0,0 l/m 1,6 km/h (1 Bft) O 90 0 min 0,000 mm 5 W/m 7,4 C 8,8 C 8,0 km/h (2 Bft) 100 %
14.11.2014 08:10 8,8 C 8,8 C 8,8 C 91 % 1010,2 hPa 0,0 l/m 1,6 km/h (1 Bft) SO 135 0 min 0,000 mm 7 W/m 7,4 C 8,8 C 6,4 km/h (2 Bft) 100 %
14.11.2014 08:20 8,8 C 8,7 C 8,8 C 91 % 1010,3 hPa 0,0 l/m 3,2 km/h (1 Bft) O-SO 112 0 min 0,000 mm 9 W/m 7,4 C 8,8 C 11,3 km/h (2 Bft) 100 %
14.11.2014 08:30 8,7 C 8,7 C 8,8 C 90 % 1010,3 hPa 0,0 l/m 3,2 km/h (1 Bft) SO 135 0 min 0,000 mm 14 W/m 7,2 C 8,7 C 9,7 km/h (2 Bft) 100 %
14.11.2014 08:40 8,8 C 8,7 C 8,8 C 90 % 1010,4 hPa 0,0 l/m 1,6 km/h (1 Bft) SO 135 0 min 0,000 mm 18 W/m 7,3 C 8,8 C 11,3 km/h (2 Bft) 100 %
14.11.2014 08:50 8,8 C 8,7 C 8,8 C 90 % 1010,3 hPa 0,0 l/m 3,2 km/h (1 Bft) SO 135 0 min 0,000 mm 19 W/m 7,3 C 8,8 C 11,3 km/h (2 Bft) 100 %
14.11.2014 09:00 8,8 C 8,8 C 8,8 C 90 % 1010,2 hPa 0,0 l/m 4,8 km/h (1 Bft) SO 135 0 min 0,000 mm 28 W/m 7,3 C 8,8 C 19,3 km/h (3 Bft) 100 %
14.11.2014 09:10 8,8 C 8,8 C 8,8 C 90 % 1010,3 hPa 0,0 l/m 1,6 km/h (1 Bft) SO 135 0 min 0,000 mm 28 W/m 7,3 C 8,8 C 8,0 km/h (2 Bft) 100 %
14.11.2014 09:20 8,8 C 8,8 C 8,8 C 90 % 1010,2 hPa 0,0 l/m 3,2 km/h (1 Bft) SO 135 0 min 0,000 mm 32 W/m 7,3 C 8,8 C 11,3 km/h (2 Bft) 100 %
14.11.2014 09:30 8,8 C 8,8 C 8,9 C 90 % 1010,1 hPa 0,0 l/m 1,6 km/h (1 Bft) SO 135 0 min 0,000 mm 30 W/m 7,3 C 8,8 C 9,7 km/h (2 Bft) 100 %
14.11.2014 09:40 8,9 C 8,8 C 8,9 C 90 % 1010,1 hPa 0,0 l/m 3,2 km/h (1 Bft) O-SO 112 0 min 0,000 mm 32 W/m 7,4 C 8,9 C 9,7 km/h (2 Bft) 100 %
14.11.2014 09:50 8,8 C 8,8 C 8,9 C 90 % 1010,2 hPa 0,0 l/m 6,4 km/h (2 Bft) SO 135 0 min 0,000 mm 30 W/m 7,3 C 8,8 C 17,7 km/h (3 Bft) 100 %
14.11.2014 10:00 8,8 C 8,8 C 8,9 C 90 % 1010,2 hPa 0,0 l/m 3,2 km/h (1 Bft) SO 135 0 min 0,025 mm 39 W/m 7,3 C 8,8 C 9,7 km/h (2 Bft) 100 %
14.11.2014 10:10 8,9 C 8,8 C 8,9 C 90 % 1010,1 hPa 0,0 l/m 4,0 km/h (1 Bft) SO 141 0 min 0,000 mm 44 W/m 7,4 C 8,9 C 11,3 km/h (2 Bft) 99 %
14.11.2014 10:20 8,9 C 8,9 C 8,9 C 90 % 1010,0 hPa 0,0 l/m 3,2 km/h (1 Bft) SO 146 0 min 0,000 mm 46 W/m 7,4 C 8,9 C 9,7 km/h (2 Bft) 100 %
14.11.2014 10:30 8,9 C 8,9 C 8,9 C 90 % 1010,1 hPa 0,0 l/m 1,6 km/h (1 Bft) SO 127 0 min 0,000 mm 65 W/m 7,4 C 8,9 C 9,7 km/h (2 Bft) 100 %
14.11.2014 10:40 9,0 C 8,9 C 9,0 C 90 % 1010,3 hPa 0,0 l/m 1,4 km/h (1 Bft) SO 136 0 min 0,000 mm 56 W/m 7,4 C 9,0 C 9,7 km/h (2 Bft) 100 %
14.11.2014 10:50 9,0 C 9,0 C 9,1 C 89 % 1010,2 hPa 0,0 l/m 3,1 km/h (1 Bft) S-SO 151 0 min 0,000 mm 63 W/m 7,3 C 9,0 C 11,3 km/h (2 Bft) 100 %
14.11.2014 11:00 9,1 C 9,0 C 9,1 C 88 % 1010,1 hPa 0,0 l/m 2,6 km/h (1 Bft) SO 140 0 min 0,026 mm 84 W/m 7,2 C 9,1 C 11,3 km/h (2 Bft) 100 %
14.11.2014 11:10 9,1 C 9,1 C 9,1 C 89 % 1010,0 hPa 0,0 l/m 1,1 km/h (1 Bft) O-SO 119 0 min 0,000 mm 84 W/m 7,4 C 9,1 C 6,4 km/h (2 Bft) 100 %
14.11.2014 11:20 9,2 C 9,1 C 9,2 C 88 % 1009,9 hPa 0,0 l/m 2,3 km/h (1 Bft) O-SO 107 0 min 0,000 mm 91 W/m 7,3 C 9,2 C 8,0 km/h (2 Bft) 100 %
14.11.2014 11:30 9,3 C 9,2 C 9,3 C 88 % 1009,6 hPa 0,0 l/m 1,9 km/h (1 Bft) O-SO 104 0 min 0,000 mm 104 W/m 7,4 C 9,3 C 9,7 km/h (2 Bft) 100 %
14.11.2014 11:40 9,3 C 9,2 C 9,3 C 88 % 1009,5 hPa 0,0 l/m 3,9 km/h (1 Bft) SO 126 0 min 0,000 mm 125 W/m 7,4 C 9,3 C 9,7 km/h (2 Bft) 100 %
14.11.2014 11:50 9,4 C 9,3 C 9,4 C 87 % 1009,5 hPa 0,0 l/m 2,6 km/h (1 Bft) SO 140 0 min 0,000 mm 100 W/m 7,3 C 9,4 C 8,0 km/h (2 Bft) 100 %
14.11.2014 12:00 9,4 C 9,4 C 9,4 C 87 % 1009,1 hPa 0,0 l/m 4,4 km/h (1 Bft) S-SO 163 0 min 0,051 mm 139 W/m 7,3 C 9,4 C 14,5 km/h (3 Bft) 100 %
14.11.2014 12:10 9,5 C 9,4 C 9,5 C 87 % 1009,2 hPa 0,0 l/m 2,1 km/h (1 Bft) S 173 0 min 0,000 mm 125 W/m 7,4 C 9,5 C 9,7 km/h (2 Bft) 100 %
14.11.2014 12:20 9,6 C 9,5 C 9,6 C 87 % 1008,9 hPa 0,0 l/m 4,0 km/h (1 Bft) SO 138 0 min 0,000 mm 132 W/m 7,5 C 9,6 C 11,3 km/h (2 Bft) 100 %
14.11.2014 12:30 9,6 C 9,6 C 9,6 C 87 % 1008,7 hPa 0,0 l/m 4,0 km/h (1 Bft) O-SO 117 10 min 0,000 mm 167 W/m 7,5 C 9,6 C 11,3 km/h (2 Bft) 100 %
14.11.2014 12:40 9,8 C 9,6 C 9,8 C 86 % 1008,6 hPa 0,0 l/m 1,2 km/h (1 Bft) S-SO 154 0 min 0,000 mm 146 W/m 7,6 C 9,8 C 9,7 km/h (2 Bft) 100 %
14.11.2014 12:50 9,9 C 9,8 C 9,9 C 86 % 1008,5 hPa 0,0 l/m 1,9 km/h (1 Bft) O-SO 121 10 min 0,000 mm 176 W/m 7,7 C 9,9 C 8,0 km/h (2 Bft) 100 %
14.11.2014 13:00 10,0 C 9,9 C 10,1 C 85 % 1008,5 hPa 0,0 l/m 1,4 km/h (1 Bft) O 98 0 min 0,076 mm 144 W/m 7,6 C 10,0 C 9,7 km/h (2 Bft) 99 %
14.11.2014 13:10 10,1 C 10,0 C 10,1 C 86 % 1008,3 hPa 0,0 l/m 2,1 km/h (1 Bft) S-SO 159 0 min 0,000 mm 111 W/m 7,9 C 10,1 C 9,7 km/h (2 Bft) 100 %
14.11.2014 13:20 10,3 C 10,1 C 10,3 C 86 % 1008,3 hPa 0,0 l/m 0,9 km/h (0 Bft) S-SW 208 10 min 0,000 mm 165 W/m 8,1 C 10,3 C 6,4 km/h (2 Bft) 100 %
14.11.2014 13:30 10,5 C 10,3 C 10,5 C 84 % 1008,3 hPa 0,0 l/m 2,6 km/h (1 Bft) SO 146 10 min 0,000 mm 163 W/m 7,9 C 10,5 C 8,0 km/h (2 Bft) 100 %
14.11.2014 13:40 10,6 C 10,5 C 10,6 C 83 % 1008,2 hPa 0,0 l/m 1,8 km/h (1 Bft) SO 138 10 min 0,000 mm 183 W/m 7,8 C 10,6 C 9,7 km/h (2 Bft) 100 %
14.11.2014 13:50 10,7 C 10,6 C 10,7 C 83 % 1008,0 hPa 0,0 l/m 2,6 km/h (1 Bft) O-SO 123 10 min 0,000 mm 206 W/m 7,9 C 10,7 C 14,5 km/h (3 Bft) 100 %
14.11.2014 14:00 10,9 C 10,7 C 10,9 C 83 % 1007,9 hPa 0,0 l/m 1,4 km/h (1 Bft) O-SO 111 10 min 0,076 mm 163 W/m 8,1 C 10,9 C 12,9 km/h (3 Bft) 100 %
14.11.2014 14:10 11,1 C 10,9 C 11,1 C 82 % 1007,8 hPa 0,0 l/m 0,7 km/h (0 Bft) O 101 10 min 0,000 mm 178 W/m 8,1 C 11,1 C 8,0 km/h (2 Bft) 100 %
14.11.2014 14:20 11,1 C 11,1 C 11,1 C 81 % 1007,8 hPa 0,0 l/m 1,6 km/h (1 Bft) O-NO 67 0 min 0,000 mm 114 W/m 8,0 C 11,1 C 8,0 km/h (2 Bft) 100 %
14.11.2014 14:30 11,3 C 11,1 C 11,3 C 82 % 1007,7 hPa 0,0 l/m 0,2 km/h (0 Bft) O-SO 105 0 min 0,000 mm 100 W/m 8,3 C 11,3 C 4,8 km/h (1 Bft) 100 %
14.11.2014 14:40 11,3 C 11,3 C 11,3 C 81 % 1007,8 hPa 0,0 l/m 1,3 km/h (1 Bft) N-NW 329 0 min 0,000 mm 135 W/m 8,2 C 11,3 C 6,4 km/h (2 Bft) 100 %
14.11.2014 14:50 11,2 C 11,2 C 11,3 C 82 % 1008,0 hPa 0,0 l/m 1,0 km/h (0 Bft) O 85 0 min 0,000 mm 72 W/m 8,2 C 11,2 C 8,0 km/h (2 Bft) 100 %
14.11.2014 15:00 11,0 C 10,9 C 11,2 C 83 % 1008,3 hPa 0,0 l/m 0,8 km/h (0 Bft) O-NO 71 0 min 0,076 mm 63 W/m 8,2 C 11,0 C 8,0 km/h (2 Bft) 100 %
14.11.2014 15:10 10,9 C 10,9 C 11,0 C 84 % 1008,1 hPa 0,0 l/m 0,0 km/h (0 Bft) O 90 0 min 0,000 mm 63 W/m 8,3 C 10,9 C 1,6 km/h (1 Bft) 100 %
14.11.2014 15:20 10,9 C 10,9 C 10,9 C 84 % 1008,1 hPa 0,0 l/m 0,2 km/h (0 Bft) O 82 0 min 0,000 mm 63 W/m 8,3 C 10,9 C 3,2 km/h (1 Bft) 100 %
14.11.2014 15:30 10,7 C 10,7 C 10,9 C 85 % 1007,9 hPa 0,0 l/m 0,7 km/h (0 Bft) O-NO 75 0 min 0,000 mm 62 W/m 8,3 C 10,7 C 6,4 km/h (2 Bft) 100 %
14.11.2014 15:40 10,6 C 10,6 C 10,7 C 85 % 1007,9 hPa 0,0 l/m 0,3 km/h (0 Bft) O-NO 63 0 min 0,000 mm 49 W/m 8,2 C 10,6 C 3,2 km/h (1 Bft) 100 %
14.11.2014 15:50 10,5 C 10,5 C 10,6 C 85 % 1007,8 hPa 0,0 l/m 0,2 km/h (0 Bft) NO 42 0 min 0,000 mm 37 W/m 8,1 C 10,5 C 4,8 km/h (1 Bft) 100 %
14.11.2014 16:00 10,3 C 10,3 C 10,5 C 86 % 1008,0 hPa 0,0 l/m 0,6 km/h (0 Bft) O-NO 62 0 min 0,026 mm 30 W/m 8,1 C 10,3 C 8,0 km/h (2 Bft) 100 %
14.11.2014 16:10 10,1 C 10,1 C 10,3 C 86 % 1007,9 hPa 0,0 l/m 0,2 km/h (0 Bft) O-SO 119 0 min 0,000 mm 30 W/m 7,9 C 10,1 C 3,2 km/h (1 Bft) 100 %
14.11.2014 16:20 9,9 C 9,9 C 10,1 C 87 % 1008,0 hPa 0,0 l/m 0,3 km/h (0 Bft) NO 40 0 min 0,000 mm 18 W/m 7,8 C 9,9 C 4,8 km/h (1 Bft) 100 %
14.11.2014 16:30 9,6 C 9,6 C 9,9 C 87 % 1007,9 hPa 0,0 l/m 0,2 km/h (0 Bft) NO 34 0 min 0,000 mm 9 W/m 7,5 C 9,6 C 6,4 km/h (2 Bft) 100 %
14.11.2014 16:40 9,3 C 9,3 C 9,6 C 88 % 1007,9 hPa 0,0 l/m 0,0 km/h (0 Bft) O-NO 59 0 min 0,000 mm 0 W/m 7,4 C 9,3 C 1,6 km/h (1 Bft) 100 %
14.11.2014 16:50 9,0 C 9,0 C 9,3 C 88 % 1007,9 hPa 0,0 l/m 0,3 km/h (0 Bft) O-NO 71 0 min 0,000 mm 0 W/m 7,1 C 9,0 C 3,2 km/h (1 Bft) 100 %
14.11.2014 17:00 8,7 C 8,7 C 9,0 C 89 % 1008,0 hPa 0,0 l/m 0,2 km/h (0 Bft) N-NW 331 0 min 0,000 mm 0 W/m 7,0 C 8,7 C 4,8 km/h (1 Bft) 91 %
14.11.2014 17:10 8,4 C 8,4 C 8,7 C 90 % 1007,9 hPa 0,0 l/m 0,1 km/h (0 Bft) N-NW 345 0 min 0,000 mm 0 W/m 6,9 C 8,4 C 1,6 km/h (1 Bft) 100 %
14.11.2014 17:20 8,2 C 8,2 C 8,4 C 90 % 1007,9 hPa 0,0 l/m 0,3 km/h (0 Bft) O-NO 61 0 min 0,000 mm 0 W/m 6,7 C 8,2 C 4,8 km/h (1 Bft) 100 %
14.11.2014 17:30 8,0 C 8,0 C 8,2 C 91 % 1007,7 hPa 0,0 l/m 0,2 km/h (0 Bft) NO 34 0 min 0,000 mm 0 W/m 6,6 C 8,0 C 4,8 km/h (1 Bft) 100 %
14.11.2014 17:40 7,8 C 7,8 C 8,0 C 91 % 1007,7 hPa 0,0 l/m 0,6 km/h (0 Bft) N 355 0 min 0,000 mm 0 W/m 6,4 C 7,8 C 6,4 km/h (2 Bft) 100 %
14.11.2014 17:50 7,7 C 7,7 C 7,8 C 91 % 1007,6 hPa 0,0 l/m 0,3 km/h (0 Bft) O-NO 58 0 min 0,000 mm 0 W/m 6,3 C 7,7 C 4,8 km/h (1 Bft) 100 %
14.11.2014 18:00 7,6 C 7,6 C 7,7 C 91 % 1007,5 hPa 0,0 l/m 0,5 km/h (0 Bft) O-NO 57 0 min 0,000 mm 0 W/m 6,2 C 7,6 C 6,4 km/h (2 Bft) 100 %
14.11.2014 18:10 7,5 C 7,5 C 7,6 C 91 % 1007,6 hPa 0,0 l/m 0,5 km/h (0 Bft) NO 36 0 min 0,000 mm 0 W/m 6,1 C 7,5 C 8,0 km/h (2 Bft) 100 %
14.11.2014 18:20 7,4 C 7,3 C 7,5 C 91 % 1007,5 hPa 0,0 l/m 0,2 km/h (0 Bft) O-SO 115 0 min 0,000 mm 0 W/m 6,0 C 7,4 C 4,8 km/h (1 Bft) 100 %
14.11.2014 18:30 7,3 C 7,3 C 7,4 C 92 % 1007,3 hPa 0,0 l/m 1,2 km/h (1 Bft) O-NO 64 0 min 0,000 mm 0 W/m 6,1 C 7,3 C 9,7 km/h (2 Bft) 100 %
14.11.2014 18:40 7,2 C 7,2 C 7,3 C 92 % 1007,3 hPa 0,0 l/m 1,5 km/h (1 Bft) O 94 0 min 0,000 mm 0 W/m 6,0 C 7,2 C 9,7 km/h (2 Bft) 100 %
14.11.2014 18:50 7,1 C 7,1 C 7,2 C 91 % 1007,1 hPa 0,0 l/m 0,4 km/h (0 Bft) NO 56 0 min 0,000 mm 0 W/m 5,7 C 7,1 C 6,4 km/h (2 Bft) 100 %
14.11.2014 19:00 7,0 C 7,0 C 7,1 C 91 % 1007,1 hPa 0,0 l/m 0,6 km/h (0 Bft) NO 37 0 min 0,000 mm 0 W/m 5,6 C 7,0 C 8,0 km/h (2 Bft) 100 %
14.11.2014 19:10 6,9 C 6,9 C 7,0 C 91 % 1007,2 hPa 0,0 l/m 0,2 km/h (0 Bft) O 90 0 min 0,000 mm 0 W/m 5,5 C 6,9 C 3,2 km/h (1 Bft) 100 %
14.11.2014 19:20 6,9 C 6,9 C 6,9 C 92 % 1007,2 hPa 0,0 l/m 0,2 km/h (0 Bft) O-NO 74 0 min 0,000 mm 0 W/m 5,7 C 6,9 C 3,2 km/h (1 Bft) 100 %
14.11.2014 19:30 6,7 C 6,7 C 6,9 C 91 % 1007,2 hPa 0,0 l/m 0,4 km/h (0 Bft) NW 319 0 min 0,000 mm 0 W/m 5,3 C 6,7 C 3,2 km/h (1 Bft) 100 %
14.11.2014 19:40 6,6 C 6,6 C 6,7 C 92 % 1007,1 hPa 0,0 l/m 0,1 km/h (0 Bft) NW 318 0 min 0,000 mm 0 W/m 5,4 C 6,6 C 1,6 km/h (1 Bft) 100 %
14.11.2014 19:50 6,4 C 6,4 C 6,6 C 91 % 1007,0 hPa 0,0 l/m 0,3 km/h (0 Bft) NW 318 0 min 0,000 mm 0 W/m 5,0 C 6,4 C 3,2 km/h (1 Bft) 100 %
14.11.2014 20:00 6,3 C 6,3 C 6,4 C 91 % 1007,0 hPa 0,0 l/m 0,1 km/h (0 Bft) N-NW 333 0 min 0,000 mm 0 W/m 4,9 C 6,3 C 3,2 km/h (1 Bft) 100 %
14.11.2014 20:10 6,2 C 6,2 C 6,3 C 91 % 1007,1 hPa 0,0 l/m 0,0 km/h (0 Bft) N-NW 333 0 min 0,000 mm 0 W/m 4,8 C 6,2 C 1,6 km/h (1 Bft) 100 %
14.11.2014 20:20 6,2 C 6,2 C 6,2 C 91 % 1007,1 hPa 0,0 l/m 0,1 km/h (0 Bft) N-NW 332 0 min 0,000 mm 0 W/m 4,8 C 6,2 C 3,2 km/h (1 Bft) 100 %
14.11.2014 20:30 6,2 C 6,2 C 6,2 C 91 % 1007,0 hPa 0,0 l/m 0,1 km/h (0 Bft) N-NW 332 0 min 0,000 mm 0 W/m 4,8 C 6,2 C 1,6 km/h (1 Bft) 100 %
14.11.2014 20:40 6,3 C 6,2 C 6,3 C 91 % 1007,2 hPa 0,0 l/m 0,5 km/h (0 Bft) W-NW 284 0 min 0,000 mm 0 W/m 4,9 C 6,3 C 3,2 km/h (1 Bft) 100 %
14.11.2014 20:50 6,3 C 6,3 C 6,3 C 91 % 1007,3 hPa 0,0 l/m 0,0 km/h (0 Bft) W-NW 284 0 min 0,000 mm 0 W/m 4,9 C 6,3 C 1,6 km/h (1 Bft) 100 %
14.11.2014 21:00 6,4 C 6,3 C 6,4 C 91 % 1007,3 hPa 0,0 l/m 0,0 km/h (0 Bft) W-NW 284 0 min 0,000 mm 0 W/m 5,0 C 6,4 C 0,0 km/h (0 Bft) 100 %
14.11.2014 21:10 6,4 C 6,3 C 6,4 C 91 % 1007,6 hPa 0,0 l/m 0,0 km/h (0 Bft) S-SW 206 0 min 0,000 mm 0 W/m 5,0 C 6,4 C 0,0 km/h (0 Bft) 100 %
14.11.2014 21:20 6,5 C 6,3 C 6,5 C 91 % 1007,7 hPa 0,0 l/m 0,0 km/h (0 Bft) W 277 0 min 0,000 mm 0 W/m 5,1 C 6,5 C 1,6 km/h (1 Bft) 100 %
14.11.2014 21:30 6,6 C 6,5 C 6,6 C 91 % 1007,4 hPa 0,0 l/m 0,2 km/h (0 Bft) N 355 0 min 0,000 mm 0 W/m 5,2 C 6,6 C 4,8 km/h (1 Bft) 100 %
14.11.2014 21:40 6,6 C 6,5 C 6,6 C 91 % 1007,4 hPa 0,0 l/m 0,0 km/h (0 Bft) N 360 0 min 0,000 mm 0 W/m 5,2 C 6,6 C 1,6 km/h (1 Bft) 98 %
14.11.2014 21:50 6,5 C 6,5 C 6,6 C 91 % 1007,3 hPa 0,0 l/m 0,0 km/h (0 Bft) N-NO 22 0 min 0,000 mm 0 W/m 5,1 C 6,5 C 3,2 km/h (1 Bft) 97 %
14.11.2014 22:00 6,5 C 6,5 C 6,5 C 91 % 1007,3 hPa 0,0 l/m 0,0 km/h (0 Bft) O-NO 67 0 min 0,000 mm 0 W/m 5,1 C 6,5 C 3,2 km/h (1 Bft) 97 %
14.11.2014 22:10 6,5 C 6,5 C 6,5 C 91 % 1007,2 hPa 0,0 l/m 0,0 km/h (0 Bft) N 0 0 min 0,000 mm 0 W/m 5,1 C 6,5 C 0,0 km/h (0 Bft) 88 %
14.11.2014 22:20 6,5 C 6,5 C 6,5 C 91 % 1007,2 hPa 0,0 l/m 0,0 km/h (0 Bft) N-NO 22 0 min 0,000 mm 0 W/m 5,1 C 6,5 C 3,2 km/h (1 Bft) 97 %
14.11.2014 22:30 6,5 C 6,5 C 6,6 C 91 % 1007,0 hPa 0,0 l/m 0,0 km/h (0 Bft) NO 45 0 min 0,000 mm 0 W/m 5,1 C 6,5 C 1,6 km/h (1 Bft) 98 %
14.11.2014 22:40 6,5 C 6,5 C 6,5 C 91 % 1006,8 hPa 0,0 l/m 0,0 km/h (0 Bft) NO 45 0 min 0,000 mm 0 W/m 5,1 C 6,5 C 3,2 km/h (1 Bft) 97 %
14.11.2014 22:50 6,5 C 6,5 C 6,5 C 91 % 1006,6 hPa 0,0 l/m 0,0 km/h (0 Bft) N-NW 337 0 min 0,000 mm 0 W/m 5,1 C 6,5 C 4,8 km/h (1 Bft) 97 %
14.11.2014 23:00 6,5 C 6,4 C 6,5 C 91 % 1006,5 hPa 0,0 l/m 0,0 km/h (0 Bft) W-SW 247 0 min 0,000 mm 0 W/m 5,1 C 6,5 C 8,0 km/h (2 Bft) 97 %
14.11.2014 23:10 6,5 C 6,4 C 6,5 C 91 % 1006,8 hPa 0,0 l/m 0,0 km/h (0 Bft) N-NW 337 0 min 0,000 mm 0 W/m 5,1 C 6,5 C 6,4 km/h (2 Bft) 97 %
14.11.2014 23:20 6,5 C 6,4 C 6,5 C 91 % 1006,6 hPa 0,0 l/m 0,0 km/h (0 Bft) N-NW 337 0 min 0,000 mm 0 W/m 5,1 C 6,5 C 6,4 km/h (2 Bft) 98 %
14.11.2014 23:30 6,5 C 6,5 C 6,5 C 91 % 1006,5 hPa 0,0 l/m 0,0 km/h (0 Bft) N-NW 337 0 min 0,000 mm 0 W/m 5,1 C 6,5 C 4,8 km/h (1 Bft) 97 %
14.11.2014 23:40 6,5 C 6,5 C 6,6 C 91 % 1006,3 hPa 0,0 l/m 0,0 km/h (0 Bft) NO 45 0 min 0,000 mm 0 W/m 5,1 C 6,5 C 1,6 km/h (1 Bft) 98 %
14.11.2014 23:50 6,5 C 6,5 C 6,6 C 91 % 1006,2 hPa 0,0 l/m 0,0 km/h (0 Bft) N 360 0 min 0,000 mm 0 W/m 5,1 C 6,5 C 3,2 km/h (1 Bft) 97 %
_ Min-Zeit 20:10 20:10 20:20 14:20 23:50 - 00:10 - - - - - 20:10 20:10 21:00 22:10
Minimum _ 6,2 C 6,2 C 6,2 C 81 % 1006,2 hPa - 0,0 km/h (0 Bft) - - - - - 4,8 C 6,2 C 0,0 km/h (0 Bft) 88 %
_ Max-Zeit 14:30 14:40 14:30 00:40 00:00 00:00 09:50 - - 12:30 13:00 13:50 14:30 14:30 09:00 00:00
Maximum _ 11,3 C 11,3 C 11,3 C 92 % 1012,9 hPa 0,0 l/m 6,4 km/h
SO (2 Bft)
- - 10 min 0,076 mm 206 W/m 8,3 C 11,3 C 19,3 km/h
SO (3 Bft)
100 %
Durchschnitt _ 8,5 C 8,5 C 8,5 C 90 % 1009,3 hPa #0,0 l/m 1,0 km/h (0 Bft) SO - #1:20 h #0,356 mm 81 W/m 6,9 C 8,5 C 6,7 km/h (2 Bft) 99 %
PRIVATE WETTERSTATION BILLIGHEIM-ALLFELD - www.neckar-odenwald-wetter.de - Holger Sonntag